Select another period ( hide this area )

Units Period Custom range Directly to
Metric English Both
Daily Weekly Monthly Yearly
use both date-selectors for a custom range
previous Day
With this date
Daily Summary for Wednesday 28 September 2022
Time Temp. ( °C ) Dew pt. ( °C ) Wind ( km/h ) From Gust ( km/h ) Pressure ( hPa ) Humid.( % ) Rainrate ( cm )
High20,4 14,5 23,0 WNW ( 1119/2065 ) 39,0 1010,2 82 0,51
Average17,1 12,3 14,2 WNW #80/145 39,0 1009,2 74 1,00
Low15,3 10,6 6,0   39,0 1008,5 61 -
Daily Tabular details for Wednesday 28 September 2022
Time Temp. ( °C ) Dew pt. ( °C ) Wind ( km/h ) From Gust ( km/h ) Pressure ( hPa ) Humid.( % ) Rainrate ( cm )
00:04 17,6 14,5 18,0 WNW 39,0 1008,8 82 -
00:09 17,4 14,3 16,0 West 39,0 1008,8 82 -
00:14 17,4 14,3 18,0 West 39,0 1008,8 82 -
00:19 17,4 14,2 15,0 WNW 39,0 1008,8 81 -
00:24 17,4 14,1 19,0 WNW 39,0 1008,8 81 -
00:29 17,4 14,1 10,0 West 39,0 1008,8 81 -
00:34 17,4 14,0 16,0 West 39,0 1008,8 80 -
00:39 17,4 14,0 15,0 WNW 39,0 1008,8 80 -
00:44 17,5 14,0 13,0 NW 39,0 1008,8 80 -
00:49 17,5 14,0 19,0 WNW 39,0 1008,8 80 -
00:54 17,6 14,1 15,0 NW 39,0 1008,5 80 -
00:59 17,5 14,2 13,0 NW 39,0 1008,5 81 -
01:04 17,5 14,2 15,0 NW 39,0 1008,5 81 -
01:09 17,4 14,3 18,0 NW 39,0 1008,5 82 -
01:14 17,3 14,2 19,0 NW 39,0 1008,5 82 -
01:19 17,3 14,2 15,0 WNW 39,0 1008,5 82 -
01:24 17,3 14,2 18,0 NW 39,0 1008,5 82 -
01:29 17,2 14,1 18,0 WNW 39,0 1008,5 82 -
01:34 17,2 14,1 15,0 NW 39,0 1008,5 82 -
01:39 17,2 14,1 19,0 WNW 39,0 1008,5 82 -
01:44 17,2 14,1 18,0 WNW 39,0 1008,5 82 -
01:49 17,2 14,1 18,0 WNW 39,0 1008,5 82 -
01:54 17,2 14,1 23,0 NW 39,0 1008,8 82 -
01:59 17,1 14,0 19,0 NW 39,0 1008,5 82 -
02:04 17,1 14,0 19,0 NW 39,0 1008,5 82 -
02:09 17,1 14,0 16,0 WNW 39,0 1008,5 82 -
02:14 17,1 13,8 18,0 WNW 39,0 1008,5 81 -
02:19 16,9 13,7 18,0 WNW 39,0 1008,5 81 -
02:24 16,9 13,4 18,0 NW 39,0 1008,8 80 -
02:29 16,8 13,4 11,0 WNW 39,0 1008,8 80 -
02:34 16,8 13,1 11,0 WNW 39,0 1008,8 79 -
02:39 16,7 13,0 13,0 WNW 39,0 1008,8 79 -
02:44 16,6 12,8 15,0 WNW 39,0 1008,8 78 -
02:49 16,6 12,8 13,0 NW 39,0 1009,1 78 -
02:54 16,6 12,5 13,0 WNW 39,0 1009,1 77 -
02:59 16,5 12,5 13,0 WNW 39,0 1009,1 77 -
03:04 16,5 12,5 13,0 WNW 39,0 1009,1 77 -
03:09 16,4 12,2 11,0 West 39,0 1009,1 76 -
03:14 16,4 12,2 16,0 West 39,0 1009,1 76 -
03:19 16,4 12,0 13,0 WNW 39,0 1008,8 75 -
03:24 16,5 11,8 13,0 WNW 39,0 1008,8 74 -
03:29 16,5 11,4 13,0 WNW 39,0 1008,8 72 -
03:34 16,6 11,2 16,0 WNW 39,0 1008,8 71 -
03:39 16,7 11,0 18,0 WNW 39,0 1008,8 69 -
03:44 16,7 10,8 15,0 WNW 39,0 1008,8 68 -
03:49 16,8 10,7 15,0 WNW 39,0 1008,8 67 -
03:54 16,9 10,7 13,0 WNW 39,0 1008,8 67 -
03:59 17,0 10,6 21,0 NW 39,0 1008,8 66 -
04:04 17,1 10,7 21,0 NW 39,0 1008,8 66 -
04:09 17,2 10,8 18,0 WNW 39,0 1008,8 66 -
04:14 17,2 10,8 15,0 NW 39,0 1008,8 66 -
04:19 17,1 10,7 15,0 WNW 39,0 1008,8 66 -
04:24 17,1 10,9 13,0 NW 39,0 1008,8 67 -
04:29 17,1 10,9 11,0 WNW 39,0 1008,8 67 -
04:34 17,0 10,8 10,0 West 39,0 1008,8 67 -
04:39 16,9 11,0 8,0 WNW 39,0 1008,8 68 -
04:44 16,9 11,0 10,0 WNW 39,0 1008,8 68 -
04:49 16,8 11,0 11,0 NW 39,0 1008,8 69 -
04:54 16,7 11,2 11,0 WNW 39,0 1008,8 70 -
04:59 16,7 11,3 13,0 WNW 39,0 1008,8 71 -
05:04 16,6 11,3 11,0 NW 39,0 1008,8 71 -
05:09 16,6 11,5 13,0 WNW 39,0 1008,8 72 -
05:14 16,6 11,8 13,0 WNW 39,0 1008,8 73 -
05:19 16,7 11,8 11,0 NW 39,0 1008,8 73 -
05:24 16,7 11,8 13,0 WNW 39,0 1008,8 73 -
05:29 16,7 12,0 13,0 WNW 39,0 1008,8 74 -
05:34 16,6 12,0 15,0 NW 39,0 1008,8 74 -
05:39 16,6 12,2 11,0 NW 39,0 1008,8 75 -
05:44 16,6 12,2 10,0 NW 39,0 1008,8 75 -
05:49 16,6 12,2 11,0 WNW 39,0 1008,8 75 -
05:54 16,6 12,1 10,0 NW 39,0 1009,1 75 -
05:59 16,6 12,1 10,0 WNW 39,0 1009,1 75 -
06:04 16,5 12,1 10,0 WNW 39,0 1008,8 75 -
06:09 16,5 12,3 10,0 NW 39,0 1008,8 76 -
06:14 16,5 12,3 10,0 WNW 39,0 1008,8 76 -
06:19 16,4 12,4 10,0 NW 39,0 1009,1 77 -
06:24 16,4 12,4 11,0 NW 39,0 1009,1 77 -
06:29 16,3 12,4 10,0 NW 39,0 1009,1 78 -
06:34 16,3 12,4 13,0 WNW 39,0 1009,1 78 -
06:39 16,2 12,5 11,0 NW 39,0 1009,1 79 -
06:44 16,1 12,6 11,0 NW 39,0 1009,1 80 0,25
06:49 16,0 12,6 11,0 WNW 39,0 1009,1 80 0,25
06:54 15,9 12,5 13,0 WNW 39,0 1009,1 81 0,51
06:59 15,7 12,5 21,0 WNW 39,0 1009,1 81 0,51
07:04 15,6 12,5 15,0 WNW 39,0 1009,1 82 0,51
07:09 15,5 12,4 13,0 WNW 39,0 1009,1 82 0,51
07:14 15,4 12,3 11,0 WNW 39,0 1009,1 82 0,51
07:19 15,4 12,3 13,0 NW 39,0 1009,1 82 0,51
07:24 15,3 12,3 13,0 NW 39,0 1009,1 82 0,51
07:29 15,3 12,3 6,0 WNW 39,0 1009,1 82 0,51
07:34 15,4 12,3 11,0 WNW 39,0 1009,1 82 0,51
07:39 15,4 12,3 6,0 West 39,0 1009,1 82 0,51
07:44 15,4 12,3 10,0 NW 39,0 1009,5 82 0,51
07:49 15,4 12,2 8,0 WNW 39,0 1009,5 81 0,51
07:54 15,4 12,2 6,0 NW 39,0 1009,5 81 0,51
07:59 15,5 12,3 10,0 NW 39,0 1009,5 81 0,51
08:04 15,5 12,1 8,0 WNW 39,0 1009,5 80 0,51
08:09 15,6 11,9 8,0 WNW 39,0 1009,5 79 0,51
08:14 15,7 11,8 6,0 WNW 39,0 1009,5 78 0,51
08:19 15,7 11,8 11,0 WNW 39,0 1009,5 78 0,51
08:24 15,8 11,5 15,0 NW 39,0 1009,5 76 0,51
08:29 16,0 11,2 16,0 NW 39,0 1009,5 74 0,51
08:34 16,2 11,1 15,0 WNW 39,0 1009,5 72 0,51
08:39 16,6 10,9 11,0 WNW 39,0 1009,5 70 0,51
08:44 16,8 10,8 13,0 NW 39,0 1009,8 68 0,51
08:49 16,9 10,8 13,0 WNW 39,0 1009,8 67 0,51
08:54 17,1 10,9 15,0 WNW 39,0 1009,8 67 0,51
08:59 17,2 10,9 10,0 WNW 39,0 1009,8 67 0,51
09:04 17,3 11,0 13,0 West 39,0 1009,8 67 0,51
09:09 17,3 10,9 15,0 WNW 39,0 1009,8 66 0,51
09:14 17,5 11,1 18,0 WNW 39,0 1009,8 66 0,51
09:19 17,6 11,3 19,0 WNW 39,0 1009,8 67 0,51
09:24 17,5 11,5 16,0 WNW 39,0 1009,8 68 0,51
09:29 17,4 11,4 13,0 WNW 39,0 1009,8 68 0,51
09:34 17,4 11,5 15,0 WNW 39,0 1009,8 68 0,51
09:39 17,6 11,6 18,0 WNW 39,0 1009,8 68 0,51
09:44 17,6 11,6 15,0 WNW 39,0 1009,8 68 0,51
09:49 17,7 11,7 16,0 WNW 39,0 1009,8 68 0,51
09:54 17,8 11,8 15,0 WNW 39,0 1009,8 68 0,51
09:59 17,8 11,9 19,0 West 39,0 1009,8 68 0,51
10:04 17,8 11,9 18,0 NW 39,0 1009,8 68 0,51
10:09 17,9 12,2 15,0 WNW 39,0 1009,8 69 0,51
10:14 18,0 12,0 19,0 WNW 39,0 1009,8 68 0,51
10:19 18,2 12,1 19,0 West 39,0 1009,8 68 0,51
10:24 18,3 11,8 15,0 West 39,0 1009,8 66 0,51
10:25 18,3 11,6 8,0 West 39,0 1009,5 65 0,51
10:34 18,7 12,0 13,0 WNW 39,0 1009,8 65 0,51
10:39 18,8 12,0 13,0 WNW 39,0 1009,8 65 0,51
10:44 19,2 12,2 21,0 SW 39,0 1009,8 64 0,51
10:49 19,3 12,3 16,0 West 39,0 1009,8 64 0,51
10:54 19,3 11,9 15,0 WSW 39,0 1009,8 62 0,51
10:59 19,4 11,9 19,0 SW 39,0 1009,8 62 0,51
11:04 19,3 11,6 18,0 WSW 39,0 1010,2 61 0,51
11:09 19,2 11,8 18,0 West 39,0 1010,2 62 0,51
11:14 19,3 11,9 15,0 West 39,0 1010,2 62 0,51
11:19 19,4 11,9 16,0 West 39,0 1010,2 62 0,51
11:24 19,4 12,2 15,0 NW 39,0 1010,2 63 0,51
11:29 19,5 12,3 19,0 WSW 39,0 1010,2 63 0,51
11:34 19,6 12,6 16,0 West 39,0 1010,2 64 0,51
11:39 19,9 13,1 18,0 WNW 39,0 1010,2 65 0,51
11:44 19,9 13,1 18,0 WNW 39,0 1010,2 65 0,51
11:49 19,9 13,3 19,0 WNW 39,0 1010,2 66 0,51
11:54 20,1 13,2 16,0 West 39,0 1010,2 65 0,51
11:59 20,4 13,5 21,0 West 39,0 1010,2 65 0,51
12:00 20,4 13,2 15,0 WNW 39,0 1010,2 63 0,51
Daily Summary for Wednesday 28 September 2022
Time Temp. ( °C ) Dew pt. ( °C ) Wind ( km/h ) From Gust ( km/h ) Pressure ( hPa ) Humid.( % ) Rainrate ( cm )
High20,4 14,5 23,0 WNW ( 1119/2065 ) 39,0 1010,2 82 0,51
Average17,1 12,3 14,2 WNW #80/145 39,0 1009,2 74 1,00
Low15,3 10,6 6,0   39,0 1008,5 61 -
Daily Tabular details for Wednesday 28 September 2022
Time Temp. ( °C ) Dew pt. ( °C ) Wind ( km/h ) From Gust ( km/h ) Pressure ( hPa ) Humid.( % ) Rainrate ( cm )
00:04 17,6 14,5 18,0 WNW 39,0 1008,8 82 -
00:09 17,4 14,3 16,0 West 39,0 1008,8 82 -
00:14 17,4 14,3 18,0 West 39,0 1008,8 82 -
00:19 17,4 14,2 15,0 WNW 39,0 1008,8 81 -
00:24 17,4 14,1 19,0 WNW 39,0 1008,8 81 -
00:29 17,4 14,1 10,0 West 39,0 1008,8 81 -
00:34 17,4 14,0 16,0 West 39,0 1008,8 80 -
00:39 17,4 14,0 15,0 WNW 39,0 1008,8 80 -
00:44 17,5 14,0 13,0 NW 39,0 1008,8 80 -
00:49 17,5 14,0 19,0 WNW 39,0 1008,8 80 -
00:54 17,6 14,1 15,0 NW 39,0 1008,5 80 -
00:59 17,5 14,2 13,0 NW 39,0 1008,5 81 -
01:04 17,5 14,2 15,0 NW 39,0 1008,5 81 -
01:09 17,4 14,3 18,0 NW 39,0 1008,5 82 -
01:14 17,3 14,2 19,0 NW 39,0 1008,5 82 -
01:19 17,3 14,2 15,0 WNW 39,0 1008,5 82 -
01:24 17,3 14,2 18,0 NW 39,0 1008,5 82 -
01:29 17,2 14,1 18,0 WNW 39,0 1008,5 82 -
01:34 17,2 14,1 15,0 NW 39,0 1008,5 82 -
01:39 17,2 14,1 19,0 WNW 39,0 1008,5 82 -
01:44 17,2 14,1 18,0 WNW 39,0 1008,5 82 -
01:49 17,2 14,1 18,0 WNW 39,0 1008,5 82 -
01:54 17,2 14,1 23,0 NW 39,0 1008,8 82 -
01:59 17,1 14,0 19,0 NW 39,0 1008,5 82 -
02:04 17,1 14,0 19,0 NW 39,0 1008,5 82 -
02:09 17,1 14,0 16,0 WNW 39,0 1008,5 82 -
02:14 17,1 13,8 18,0 WNW 39,0 1008,5 81 -
02:19 16,9 13,7 18,0 WNW 39,0 1008,5 81 -
02:24 16,9 13,4 18,0 NW 39,0 1008,8 80 -
02:29 16,8 13,4 11,0 WNW 39,0 1008,8 80 -
02:34 16,8 13,1 11,0 WNW 39,0 1008,8 79 -
02:39 16,7 13,0 13,0 WNW 39,0 1008,8 79 -
02:44 16,6 12,8 15,0 WNW 39,0 1008,8 78 -
02:49 16,6 12,8 13,0 NW 39,0 1009,1 78 -
02:54 16,6 12,5 13,0 WNW 39,0 1009,1 77 -
02:59 16,5 12,5 13,0 WNW 39,0 1009,1 77 -
03:04 16,5 12,5 13,0 WNW 39,0 1009,1 77 -
03:09 16,4 12,2 11,0 West 39,0 1009,1 76 -
03:14 16,4 12,2 16,0 West 39,0 1009,1 76 -
03:19 16,4 12,0 13,0 WNW 39,0 1008,8 75 -
03:24 16,5 11,8 13,0 WNW 39,0 1008,8 74 -
03:29 16,5 11,4 13,0 WNW 39,0 1008,8 72 -
03:34 16,6 11,2 16,0 WNW 39,0 1008,8 71 -
03:39 16,7 11,0 18,0 WNW 39,0 1008,8 69 -
03:44 16,7 10,8 15,0 WNW 39,0 1008,8 68 -
03:49 16,8 10,7 15,0 WNW 39,0 1008,8 67 -
03:54 16,9 10,7 13,0 WNW 39,0 1008,8 67 -
03:59 17,0 10,6 21,0 NW 39,0 1008,8 66 -
04:04 17,1 10,7 21,0 NW 39,0 1008,8 66 -
04:09 17,2 10,8 18,0 WNW 39,0 1008,8 66 -
04:14 17,2 10,8 15,0 NW 39,0 1008,8 66 -
04:19 17,1 10,7 15,0 WNW 39,0 1008,8 66 -
04:24 17,1 10,9 13,0 NW 39,0 1008,8 67 -
04:29 17,1 10,9 11,0 WNW 39,0 1008,8 67 -
04:34 17,0 10,8 10,0 West 39,0 1008,8 67 -
04:39 16,9 11,0 8,0 WNW 39,0 1008,8 68 -
04:44 16,9 11,0 10,0 WNW 39,0 1008,8 68 -
04:49 16,8 11,0 11,0 NW 39,0 1008,8 69 -
04:54 16,7 11,2 11,0 WNW 39,0 1008,8 70 -
04:59 16,7 11,3 13,0 WNW 39,0 1008,8 71 -
05:04 16,6 11,3 11,0 NW 39,0 1008,8 71 -
05:09 16,6 11,5 13,0 WNW 39,0 1008,8 72 -
05:14 16,6 11,8 13,0 WNW 39,0 1008,8 73 -
05:19 16,7 11,8 11,0 NW 39,0 1008,8 73 -
05:24 16,7 11,8 13,0 WNW 39,0 1008,8 73 -
05:29 16,7 12,0 13,0 WNW 39,0 1008,8 74 -
05:34 16,6 12,0 15,0 NW 39,0 1008,8 74 -
05:39 16,6 12,2 11,0 NW 39,0 1008,8 75 -
05:44 16,6 12,2 10,0 NW 39,0 1008,8 75 -
05:49 16,6 12,2 11,0 WNW 39,0 1008,8 75 -
05:54 16,6 12,1 10,0 NW 39,0 1009,1 75 -
05:59 16,6 12,1 10,0 WNW 39,0 1009,1 75 -
06:04 16,5 12,1 10,0 WNW 39,0 1008,8 75 -
06:09 16,5 12,3 10,0 NW 39,0 1008,8 76 -
06:14 16,5 12,3 10,0 WNW 39,0 1008,8 76 -
06:19 16,4 12,4 10,0 NW 39,0 1009,1 77 -
06:24 16,4 12,4 11,0 NW 39,0 1009,1 77 -
06:29 16,3 12,4 10,0 NW 39,0 1009,1 78 -
06:34 16,3 12,4 13,0 WNW 39,0 1009,1 78 -
06:39 16,2 12,5 11,0 NW 39,0 1009,1 79 -
06:44 16,1 12,6 11,0 NW 39,0 1009,1 80 0,25
06:49 16,0 12,6 11,0 WNW 39,0 1009,1 80 0,25
06:54 15,9 12,5 13,0 WNW 39,0 1009,1 81 0,51
06:59 15,7 12,5 21,0 WNW 39,0 1009,1 81 0,51
07:04 15,6 12,5 15,0 WNW 39,0 1009,1 82 0,51
07:09 15,5 12,4 13,0 WNW 39,0 1009,1 82 0,51
07:14 15,4 12,3 11,0 WNW 39,0 1009,1 82 0,51
07:19 15,4 12,3 13,0 NW 39,0 1009,1 82 0,51
07:24 15,3 12,3 13,0 NW 39,0 1009,1 82 0,51
07:29 15,3 12,3 6,0 WNW 39,0 1009,1 82 0,51
07:34 15,4 12,3 11,0 WNW 39,0 1009,1 82 0,51
07:39 15,4 12,3 6,0 West 39,0 1009,1 82 0,51
07:44 15,4 12,3 10,0 NW 39,0 1009,5 82 0,51
07:49 15,4 12,2 8,0 WNW 39,0 1009,5 81 0,51
07:54 15,4 12,2 6,0 NW 39,0 1009,5 81 0,51
07:59 15,5 12,3 10,0 NW 39,0 1009,5 81 0,51
08:04 15,5 12,1 8,0 WNW 39,0 1009,5 80 0,51
08:09 15,6 11,9 8,0 WNW 39,0 1009,5 79 0,51
08:14 15,7 11,8 6,0 WNW 39,0 1009,5 78 0,51
08:19 15,7 11,8 11,0 WNW 39,0 1009,5 78 0,51
08:24 15,8 11,5 15,0 NW 39,0 1009,5 76 0,51
08:29 16,0 11,2 16,0 NW 39,0 1009,5 74 0,51
08:34 16,2 11,1 15,0 WNW 39,0 1009,5 72 0,51
08:39 16,6 10,9 11,0 WNW 39,0 1009,5 70 0,51
08:44 16,8 10,8 13,0 NW 39,0 1009,8 68 0,51
08:49 16,9 10,8 13,0 WNW 39,0 1009,8 67 0,51
08:54 17,1 10,9 15,0 WNW 39,0 1009,8 67 0,51
08:59 17,2 10,9 10,0 WNW 39,0 1009,8 67 0,51
09:04 17,3 11,0 13,0 West 39,0 1009,8 67 0,51
09:09 17,3 10,9 15,0 WNW 39,0 1009,8 66 0,51
09:14 17,5 11,1 18,0 WNW 39,0 1009,8 66 0,51
09:19 17,6 11,3 19,0 WNW 39,0 1009,8 67 0,51
09:24 17,5 11,5 16,0 WNW 39,0 1009,8 68 0,51
09:29 17,4 11,4 13,0 WNW 39,0 1009,8 68 0,51
09:34 17,4 11,5 15,0 WNW 39,0 1009,8 68 0,51
09:39 17,6 11,6 18,0 WNW 39,0 1009,8 68 0,51
09:44 17,6 11,6 15,0 WNW 39,0 1009,8 68 0,51
09:49 17,7 11,7 16,0 WNW 39,0 1009,8 68 0,51
09:54 17,8 11,8 15,0 WNW 39,0 1009,8 68 0,51
09:59 17,8 11,9 19,0 West 39,0 1009,8 68 0,51
10:04 17,8 11,9 18,0 NW 39,0 1009,8 68 0,51
10:09 17,9 12,2 15,0 WNW 39,0 1009,8 69 0,51
10:14 18,0 12,0 19,0 WNW 39,0 1009,8 68 0,51
10:19 18,2 12,1 19,0 West 39,0 1009,8 68 0,51
10:24 18,3 11,8 15,0 West 39,0 1009,8 66 0,51
10:25 18,3 11,6 8,0 West 39,0 1009,5 65 0,51
10:34 18,7 12,0 13,0 WNW 39,0 1009,8 65 0,51
10:39 18,8 12,0 13,0 WNW 39,0 1009,8 65 0,51
10:44 19,2 12,2 21,0 SW 39,0 1009,8 64 0,51
10:49 19,3 12,3 16,0 West 39,0 1009,8 64 0,51
10:54 19,3 11,9 15,0 WSW 39,0 1009,8 62 0,51
10:59 19,4 11,9 19,0 SW 39,0 1009,8 62 0,51
11:04 19,3 11,6 18,0 WSW 39,0 1010,2 61 0,51
11:09 19,2 11,8 18,0 West 39,0 1010,2 62 0,51
11:14 19,3 11,9 15,0 West 39,0 1010,2 62 0,51
11:19 19,4 11,9 16,0 West 39,0 1010,2 62 0,51
11:24 19,4 12,2 15,0 NW 39,0 1010,2 63 0,51
11:29 19,5 12,3 19,0 WSW 39,0 1010,2 63 0,51
11:34 19,6 12,6 16,0 West 39,0 1010,2 64 0,51
11:39 19,9 13,1 18,0 WNW 39,0 1010,2 65 0,51
11:44 19,9 13,1 18,0 WNW 39,0 1010,2 65 0,51
11:49 19,9 13,3 19,0 WNW 39,0 1010,2 66 0,51
11:54 20,1 13,2 16,0 West 39,0 1010,2 65 0,51
11:59 20,4 13,5 21,0 West 39,0 1010,2 65 0,51
12:00 20,4 13,2 15,0 WNW 39,0 1010,2 63 0,51

Download your copy of this data-set  from WeatherUnderground

Our weather-data as stored at Weather Underground. Original script b Jim McMurry. Rewritten for template use Leuven-Template